QPF
0.00 0.00 0.00 0.00 0.00 0.00 0.00 0.00 0.00 0.00 0.00 0.00 0.00 0.00 0.00 0.00 0.00 0.00 0.00 0.00 0.00 0.00 0.00 0.00 0.00 0.00 0.00 0.00 0.00 0.00 0.00 0.00 0.00 0.00 0.00 0.00 0.00 0.00 0.00 0.00 0.00 0.00 0.00 0.00 0.00 0.00 0.00 0.00 0.00 0.00 0.00 0.00 0.00 0.00 0.00 0.00 0.00 0.00 0.00 0.00 0.00 0.00 0.00 0.00 0.00 0.00 0.00 0.00 0.00
0.00 0.00 0.00 0.00 0.00 0.00 0.00 0.00 0.00 0.00 0.00 0.00 0.00 0.00 0.00 0.00 0.00 0.00 0.00 0.00 0.00 0.00 0.00 0.00 0.00 0.00 0.00 0.00 0.00 0.00 0.00 0.00 0.00 0.00 0.00 0.00 0.00 0.00 0.00 0.00 0.00 0.00 0.00 0.00 0.00 0.00 0.00 0.00 0.00 0.00 0.00 0.00 0.00 0.00 0.00 0.00 0.00 0.00 0.00 0.00 0.00 0.00 0.00 0.00 0.00 0.00 0.00 0.00 0.00
0.00 0.00 0.00 0.00 0.00 0.00 0.00 0.00 0.00 0.00 0.00 0.00 0.00 0.00 0.00 0.00 0.00 0.00 0.00 0.00 0.00 0.00 0.00 0.00 0.00 0.00 0.00 0.00 0.00 0.00 0.00 0.00 0.00 0.00 0.00 0.00 0.00 0.00 0.00 0.00 0.00 0.00 0.00 0.00 0.00 0.00 0.00 0.00 0.00 0.00 0.00 0.00 0.00 0.00 0.00 0.00 0.00 0.00 0.00 0.00 0.00 0.00 0.00 0.00 0.00 0.00 0.00 0.00 0.00
0.00 0.00 0.00 0.00 0.00 0.00 0.00 0.00 0.00 0.00 0.00 0.00 0.00 0.00 0.00 0.00 0.00 0.00 0.00 0.00 0.00 0.00 0.00 0.00 0.00 0.00 0.00 0.00 0.00 0.00 0.00 0.00 0.00 0.00 0.00 0.00 0.00 0.00 0.00 0.00 0.00 0.00 0.00 0.00 0.00 0.00 0.00 0.00 0.00 0.00 0.00 0.00 0.00 0.00 0.00 0.00 0.00 0.00 0.00 0.00 0.00 0.00 0.00 0.00 0.00 0.00 0.00 0.00 0.00
0.00 0.00 0.00 0.00 0.00 0.00 0.00 0.00 0.00 0.00 0.00 0.00 0.00 0.00 0.00 0.00 0.00 0.00 0.00 0.00 0.00 0.00 0.00 0.00 0.00 0.00 0.00 0.00 0.00 0.00 0.00 0.00 0.00 0.00 0.00 0.00 0.00 0.00 0.00 0.00 0.00 0.00 0.00 0.00 0.00 0.00 0.00 0.00 0.00 0.00 0.00 0.00 0.00 0.00 0.00 0.00 0.00 0.00 0.00 0.00 0.00 0.00 0.00 0.00 0.00 0.00 0.00 0.00 0.00
0.00 0.00 0.00 0.00 0.00 0.00 0.00 0.00 0.00 0.00 0.00 0.00 0.00 0.00 0.00 0.00 0.00 0.00 0.00 0.00 0.00 0.00 0.00 0.00 0.00 0.00 0.00 0.00 0.00 0.00 0.00 0.00 0.00 0.00 0.00 0.00 0.00 0.00 0.00 0.00 0.00 0.00 0.00 0.00 0.00 0.00 0.00 0.00 0.00 0.00 0.00 0.00 0.00 0.00 0.00 0.00 0.00 0.00 0.00 0.00 0.00 0.00 0.00 0.00 0.00 0.00 0.00 0.00 0.00
0.00 0.00 0.00 0.00 0.00 0.00 0.00 0.00 0.00 0.00 0.00 0.00 0.00 0.00 0.00 0.00 0.00 0.00 0.00 0.00 0.00 0.00 0.00 0.00 0.00 0.00 0.00 0.00 0.00 0.00 0.00 0.00 0.00 0.00 0.00 0.00 0.00 0.00 0.00 0.00 0.00 0.00 0.00 0.00 0.00 0.00 0.00 0.00 0.00 0.00 0.00 0.00 0.00 0.00 0.00 0.00 0.00 0.00 0.00 0.00 0.00 0.00 0.00 0.00 0.00 0.00 0.00 0.00 0.00
0.00 0.00 0.00 0.00 0.00 0.00 0.00 0.00 0.00 0.00 0.00 0.00 0.00 0.00 0.00 0.00 0.00 0.00 0.00 0.00 0.00 0.00 0.00 0.00 0.00 0.00 0.00 0.00 0.00 0.00 0.00 0.00 0.00 0.00 0.00 0.00 0.00 0.00 0.00 0.00 0.00 0.00 0.00 0.00 0.00 0.00 0.00 0.00 0.00 0.00 0.00 0.00 0.00 0.00 0.00 0.00 0.00 0.00 0.00 0.00 0.00 0.00 0.00 0.00 0.00 0.00 0.00 0.00 0.00
0.00 0.00 0.00 0.00 0.00 0.00 0.00 0.00 0.00 0.00 0.00 0.00 0.00 0.00 0.00 0.00 0.00 0.00 0.00 0.00 0.00 0.00 0.00 0.00 0.00 0.00 0.00 0.00 0.00 0.00 0.00 0.00 0.00 0.00 0.00 0.00 0.00 0.00 0.00 0.00 0.00 0.00 0.00 0.00 0.00 0.00 0.00 0.00 0.00 0.00 0.00 0.00 0.00 0.00 0.00 0.00 0.00 0.00 0.00 0.00 0.00 0.00 0.00 0.00 0.00 0.00 0.00 0.00 0.00
0.00 0.00 0.00 0.00 0.00 0.00 0.00 0.00 0.00 0.00 0.00 0.00 0.00 0.00 0.00 0.00 0.00 0.00 0.00 0.00 0.00 0.00 0.00 0.00 0.00 0.00 0.00 0.00 0.00 0.00 0.00 0.00 0.00 0.00 0.00 0.00 0.00 0.00 0.00 0.00 0.00 0.00 0.00 0.00 0.00 0.00 0.00 0.00 0.00 0.00 0.00 0.00 0.00 0.00 0.00 0.00 0.00 0.00 0.00 0.00 0.00 0.00 0.00 0.00 0.00 0.00 0.00 0.00 0.00
0.00 0.00 0.00 0.00 0.00 0.00 0.00 0.00 0.00 0.00 0.00 0.00 0.00 0.00 0.00 0.00 0.00 0.00 0.00 0.00 0.00 0.00 0.00 0.00 0.00 0.00 0.00 0.00 0.00 0.00 0.00 0.00 0.00 0.00 0.00 0.00 0.00 0.00 0.00 0.00 0.00 0.00 0.00 0.00 0.00 0.00 0.00 0.00 0.00 0.00 0.00 0.00 0.00 0.00 0.00 0.00 0.00 0.00 0.00 0.00 0.00 0.00 0.00 0.00 0.00 0.00 0.00 0.00 0.00
0.00 0.00 0.00 0.00 0.00 0.00 0.00 0.00 0.00 0.00 0.00 0.00 0.00 0.00 0.00 0.00 0.00 0.00 0.00 0.00 0.00 0.00 0.00 0.00 0.00 0.00 0.00 0.00 0.00 0.00 0.00 0.00 0.00 0.00 0.00 0.00 0.00 0.00 0.00 0.00 0.00 0.00 0.00 0.00 0.00 0.00 0.00 0.00 0.00 0.00 0.00 0.00 0.00 0.00 0.00 0.00 0.00 0.00 0.00 0.00 0.00 0.00 0.00 0.00 0.00 0.00 0.00 0.00 0.00
0.00 0.00 0.00 0.00 0.00 0.00 0.00 0.00 0.00 0.00 0.00 0.00 0.00 0.00 0.00 0.00 0.00 0.00 0.00 0.00 0.00 0.00 0.00 0.00 0.00 0.00 0.00 0.00 0.00 0.00 0.00 0.00 0.00 0.00 0.00 0.00 0.00 0.00 0.00 0.00 0.00 0.00 0.00 0.00 0.00 0.00 0.00 0.00 0.00 0.00 0.00 0.00 0.00 0.00 0.00 0.00 0.00 0.00 0.00 0.00 0.00 0.00 0.00 0.00 0.00 0.00 0.00 0.00 0.00
0.00 0.00 0.00 0.00 0.00 0.00 0.00 0.00 0.00 0.00 0.00 0.00 0.00 0.00 0.00 0.00 0.00 0.00 0.00 0.00 0.00 0.00 0.00 0.00 0.00 0.00 0.00 0.00 0.00 0.00 0.00 0.00 0.00 0.00 0.00 0.00 0.00 0.00 0.00 0.00 0.00 0.00 0.00 0.00 0.00 0.00 0.00 0.00 0.00 0.00 0.00 0.00 0.00 0.00 0.00 0.00 0.00 0.00 0.00 0.00 0.00 0.00 0.00 0.00 0.00 0.00 0.00 0.00 0.00
0.00 0.00 0.00 0.00 0.00 0.00 0.00 0.00 0.00 0.00 0.00 0.00 0.00 0.00 0.00 0.00 0.00 0.00 0.00 0.00 0.00 0.00 0.00 0.00 0.00 0.00 0.00 0.00 0.00 0.00 0.00 0.00 0.00 0.00 0.00 0.00 0.00 0.00 0.00 0.00 0.00 0.00 0.00 0.00 0.00 0.00 0.00 0.00 0.00 0.00 0.00 0.00 0.00 0.00 0.00 0.00 0.00 0.00 0.00 0.00 0.00 0.00 0.00 0.00 0.00 0.00 0.00 0.00 0.00
0.00 0.00 0.00 0.00 0.00 0.00 0.00 0.00 0.00 0.00 0.00 0.00 0.00 0.00 0.00 0.00 0.00 0.00 0.00 0.00 0.00 0.00 0.00 0.00 0.00 0.00 0.00 0.00 0.00 0.00 0.00 0.00 0.00 0.00 0.00 0.00 0.00 0.00 0.00 0.00 0.00 0.00 0.00 0.00 0.00 0.00 0.00 0.00 0.00 0.00 0.00 0.00 0.00 0.00 0.00 0.00 0.00 0.00 0.00 0.00 0.00 0.00 0.00 0.00 0.00 0.00 0.00 0.00 0.00
0.00 0.00 0.00 0.00 0.00 0.00 0.00 0.00 0.00 0.00 0.00 0.00 0.00 0.00 0.00 0.00 0.00 0.00 0.00 0.00 0.00 0.00 0.00 0.00 0.00 0.00 0.00 0.00 0.00 0.00 0.00 0.00 0.00 0.00 0.00 0.00 0.00 0.00 0.00 0.00 0.00 0.00 0.00 0.00 0.00 0.00 0.00 0.00 0.00 0.00 0.00 0.00 0.00 0.00 0.00 0.00 0.00 0.00 0.00 0.00 0.00 0.00 0.00 0.00 0.00 0.00 0.00 0.00 0.00
0.00 0.00 0.00 0.00 0.00 0.00 0.00 0.00 0.00 0.00 0.00 0.00 0.00 0.00 0.00 0.00 0.00 0.00 0.00 0.00 0.00 0.00 0.00 0.00 0.00 0.00 0.00 0.00 0.00 0.00 0.00 0.00 0.00 0.00 0.00 0.00 0.00 0.00 0.00 0.00 0.00 0.00 0.00 0.00 0.00 0.00 0.00 0.00 0.00 0.00 0.00 0.00 0.00 0.00 0.00 0.00 0.00 0.00 0.00 0.00 0.00 0.00 0.00 0.00 0.00 0.00 0.00 0.00 0.00
0.00 0.00 0.00 0.00 0.00 0.00 0.00 0.00 0.00 0.00 0.00 0.00 0.00 0.00 0.00 0.00 0.00 0.00 0.00 0.00 0.00 0.00 0.00 0.00 0.00 0.00 0.00 0.00 0.00 0.00 0.00 0.00 0.00 0.00 0.00 0.00 0.00 0.00 0.00 0.00 0.00 0.00 0.00 0.00 0.00 0.00 0.00 0.00 0.00 0.00 0.00 0.00 0.00 0.00 0.00 0.00 0.00 0.00 0.00 0.00 0.00 0.00 0.00 0.00 0.00 0.00 0.00 0.00 0.00
0.00 0.00 0.00 0.00 0.00 0.00 0.00 0.00 0.00 0.00 0.00 0.00 0.00 0.00 0.00 0.00 0.00 0.00 0.00 0.00 0.00 0.00 0.00 0.00 0.00 0.00 0.00 0.00 0.00 0.00 0.00 0.00 0.00 0.00 0.00 0.00 0.00 0.00 0.00 0.00 0.00 0.00 0.00 0.00 0.00 0.00 0.00 0.00 0.00 0.00 0.00 0.00 0.00 0.00 0.00 0.00 0.00 0.00 0.00 0.00 0.00 0.00 0.00 0.00 0.00 0.00 0.00 0.00 0.00
0.00 0.00 0.00 0.00 0.00 0.00 0.00 0.00 0.00 0.00 0.00 0.00 0.00 0.00 0.00 0.00 0.00 0.00 0.00 0.00 0.00 0.00 0.00 0.00 0.00 0.00 0.00 0.00 0.00 0.00 0.00 0.00 0.00 0.00 0.00 0.00 0.00 0.00 0.00 0.00 0.00 0.00 0.00 0.00 0.00 0.00 0.00 0.00 0.00 0.00 0.00 0.00 0.00 0.00 0.00 0.00 0.00 0.00 0.00 0.00 0.00 0.00 0.00 0.00 0.00 0.00 0.00 0.00 0.00
0.00 0.00 0.00 0.00 0.00 0.00 0.00 0.00 0.00 0.00 0.00 0.00 0.00 0.00 0.00 0.00 0.00 0.00 0.00 0.00 0.00 0.00 0.00 0.00 0.00 0.00 0.00 0.00 0.00 0.00 0.00 0.00 0.00 0.00 0.00 0.00 0.00 0.00 0.00 0.00 0.00 0.00 0.00 0.00 0.00 0.00 0.00 0.00 0.00 0.00 0.00 0.00 0.00 0.00 0.00 0.00 0.00 0.00 0.00 0.00 0.00 0.00 0.00 0.00 0.00 0.00 0.00 0.00 0.00
0.00 0.00 0.00 0.00 0.00 0.00 0.00 0.00 0.00 0.00 0.00 0.00 0.00 0.00 0.00 0.00 0.00 0.00 0.00 0.00 0.00 0.00 0.00 0.00 0.00 0.00 0.00 0.00 0.00 0.00 0.00 0.00 0.00 0.00 0.00 0.00 0.00 0.00 0.00 0.00 0.00 0.00 0.00 0.00 0.00 0.00 0.00 0.00 0.00 0.00 0.00 0.00 0.00 0.00 0.00 0.00 0.00 0.00 0.00 0.00 0.00 0.00 0.00 0.00 0.00 0.00 0.00 0.00 0.00
0.00 0.00 0.00 0.00 0.00 0.00 0.00 0.00 0.00 0.00 0.00 0.00 0.00 0.00 0.00 0.00 0.00 0.00 0.00 0.00 0.00 0.00 0.00 0.00 0.00 0.00 0.00 0.00 0.00 0.00 0.00 0.00 0.00 0.00 0.00 0.00 0.00 0.00 0.00 0.00 0.00 0.00 0.00 0.00 0.00 0.00 0.00 0.00 0.00 0.00 0.00 0.00 0.00 0.00 0.00 0.00 0.00 0.00 0.00 0.00 0.00 0.00 0.00 0.00 0.00 0.00 0.00 0.00 0.00
0.00 0.00 0.00 0.00 0.00 0.00 0.00 0.00 0.00 0.00 0.00 0.00 0.00 0.00 0.00 0.00 0.00 0.00 0.00 0.00 0.00 0.00 0.00 0.00 0.00 0.00 0.00 0.00 0.00 0.00 0.00 0.00 0.00 0.00 0.00 0.00 0.00 0.00 0.00 0.00 0.00 0.00 0.00 0.00 0.00 0.00 0.00 0.00 0.00 0.00 0.00 0.00 0.00 0.00 0.00 0.00 0.00 0.00 0.00 0.00 0.00 0.00 0.00 0.00 0.00 0.00 0.00 0.00 0.00
0.00 0.00 0.00 0.00 0.00 0.00 0.00 0.00 0.00 0.00 0.00 0.00 0.00 0.00 0.00 0.00 0.00 0.00 0.00 0.00 0.00 0.00 0.00 0.00 0.00 0.00 0.00 0.00 0.00 0.00 0.00 0.00 0.00 0.00 0.00 0.00 0.00 0.00 0.00 0.00 0.00 0.00 0.00 0.00 0.00 0.00 0.00 0.00 0.00 0.00 0.00 0.00 0.00 0.00 0.00 0.00 0.00 0.00 0.00 0.00 0.00 0.00 0.00 0.00 0.00 0.00 0.00 0.00 0.00
0.00 0.00 0.00 0.00 0.00 0.00 0.00 0.00 0.00 0.00 0.00 0.00 0.00 0.00 0.00 0.00 0.00 0.00 0.00 0.00 0.00 0.00 0.00 0.00 0.00 0.00 0.00 0.00 0.00 0.00 0.00 0.00 0.00 0.00 0.00 0.00 0.00 0.00 0.00 0.00 0.00 0.00 0.00 0.00 0.00 0.00 0.00 0.00 0.00 0.00 0.00 0.00 0.00 0.00 0.00 0.00 0.00 0.00 0.00 0.00 0.00 0.00 0.00 0.00 0.00 0.00 0.00 0.00 0.00
0.00 0.00 0.00 0.00 0.00 0.00 0.00 0.00 0.00 0.00 0.00 0.00 0.00 0.00 0.00 0.00 0.00 0.00 0.00 0.00 0.00 0.00 0.00 0.00 0.00 0.00 0.00 0.00 0.00 0.00 0.00 0.00 0.00 0.00 0.00 0.00 0.00 0.00 0.00 0.00 0.00 0.00 0.00 0.00 0.00 0.00 0.00 0.00 0.00 0.00 0.00 0.00 0.00 0.00 0.00 0.00 0.00 0.00 0.00 0.00 0.00 0.00 0.00 0.00 0.00 0.00 0.00 0.00 0.00
0.00 0.00 0.00 0.00 0.00 0.00 0.00 0.00 0.00 0.00 0.00 0.00 0.00 0.00 0.00 0.00 0.00 0.00 0.00 0.00 0.00 0.00 0.00 0.00 0.00 0.00 0.00 0.00 0.00 0.00 0.00 0.00 0.00 0.00 0.00 0.00 0.00 0.00 0.00 0.00 0.00 0.00 0.00 0.00 0.00 0.00 0.00 0.00 0.00 0.00 0.00 0.00 0.00 0.00 0.00 0.00 0.00 0.00 0.00 0.00 0.00 0.00 0.00 0.00 0.00 0.00 0.00 0.00 0.00
0.00 0.00 0.00 0.00 0.00 0.00 0.00 0.00 0.00 0.00 0.00 0.00 0.00 0.00 0.00 0.00 0.00 0.00 0.00 0.00 0.00 0.00 0.00 0.00 0.00 0.00 0.00 0.00 0.00 0.00 0.00 0.00 0.00 0.00 0.00 0.00 0.00 0.00 0.00 0.00 0.00 0.00 0.00 0.00 0.00 0.00 0.00 0.00 0.00 0.00 0.00 0.00 0.00 0.00 0.00 0.00 0.00 0.00 0.00 0.00 0.00 0.00 0.00 0.00 0.00 0.00 0.00 0.00 0.00
0.00 0.00 0.00 0.00 0.00 0.00 0.00 0.00 0.00 0.00 0.00 0.00 0.00 0.00 0.00 0.00 0.00 0.00 0.00 0.00 0.00 0.00 0.00 0.00 0.00 0.00 0.00 0.00 0.00 0.00 0.00 0.00 0.00 0.00 0.00 0.00 0.00 0.00 0.00 0.00 0.00 0.00 0.00 0.00 0.00 0.00 0.00 0.00 0.00 0.00 0.00 0.00 0.00 0.00 0.00 0.00 0.00 0.00 0.00 0.00 0.00 0.00 0.00 0.00 0.00 0.00 0.00 0.00 0.00
0.00 0.00 0.00 0.00 0.00 0.00 0.00 0.00 0.00 0.00 0.00 0.00 0.00 0.00 0.00 0.00 0.00 0.00 0.00 0.00 0.00 0.00 0.00 0.00 0.00 0.00 0.00 0.00 0.00 0.00 0.00 0.00 0.00 0.00 0.00 0.00 0.00 0.00 0.00 0.00 0.00 0.00 0.00 0.00 0.00 0.00 0.00 0.00 0.00 0.00 0.00 0.00 0.00 0.00 0.00 0.00 0.00 0.00 0.00 0.00 0.00 0.00 0.00 0.00 0.00 0.00 0.00 0.00 0.00
0.00 0.00 0.00 0.00 0.00 0.00 0.00 0.00 0.00 0.00 0.00 0.00 0.00 0.00 0.00 0.00 0.00 0.00 0.00 0.00 0.00 0.00 0.00 0.00 0.00 0.00 0.00 0.00 0.00 0.00 0.00 0.00 0.00 0.00 0.00 0.00 0.00 0.00 0.00 0.00 0.00 0.00 0.00 0.00 0.00 0.00 0.00 0.00 0.00 0.00 0.00 0.00 0.00 0.00 0.00 0.00 0.00 0.00 0.00 0.00 0.00 0.00 0.00 0.00 0.00 0.00 0.00 0.00 0.00
0.00 0.00 0.00 0.00 0.00 0.00 0.00 0.00 0.00 0.00 0.00 0.00 0.00 0.00 0.00 0.00 0.00 0.00 0.00 0.00 0.00 0.00 0.00 0.00 0.00 0.00 0.00 0.00 0.00 0.00 0.00 0.00 0.00 0.00 0.00 0.00 0.00 0.00 0.00 0.00 0.00 0.00 0.00 0.00 0.00 0.00 0.00 0.00 0.00 0.00 0.00 0.00 0.00 0.00 0.00 0.00 0.00 0.00 0.00 0.00 0.00 0.00 0.00 0.00 0.00 0.00 0.00 0.00 0.00
0.00 0.00 0.00 0.00 0.00 0.00 0.00 0.00 0.00 0.00 0.00 0.00 0.00 0.00 0.00 0.00 0.00 0.00 0.00 0.00 0.00 0.00 0.00 0.00 0.00 0.00 0.00 0.00 0.00 0.00 0.00 0.00 0.00 0.00 0.00 0.00 0.00 0.00 0.00 0.00 0.00 0.00 0.00 0.00 0.00 0.00 0.00 0.00 0.00 0.00 0.00 0.00 0.00 0.00 0.00 0.00 0.00 0.00 0.00 0.00 0.00 0.00 0.00 0.00 0.00 0.00 0.00 0.00 0.00
0.00 0.00 0.00 0.00 0.00 0.00 0.00 0.00 0.00 0.00 0.00 0.00 0.00 0.00 0.00 0.00 0.00 0.00 0.00 0.00 0.00 0.00 0.00 0.00 0.00 0.00 0.00 0.00 0.00 0.00 0.00 0.00 0.00 0.00 0.00 0.00 0.00 0.00 0.00 0.00 0.00 0.00 0.00 0.00 0.00 0.00 0.00 0.00 0.00 0.00 0.00 0.00 0.00 0.00 0.00 0.00 0.00 0.00 0.00 0.00 0.00 0.00 0.00 0.00 0.00 0.00 0.00 0.00 0.00
0.00 0.00 0.00 0.00 0.00 0.00 0.00 0.00 0.00 0.00 0.00 0.00 0.00 0.00 0.00 0.00 0.00 0.00 0.00 0.00 0.00 0.00 0.00 0.00 0.00 0.00 0.00 0.00 0.00 0.00 0.00 0.00 0.00 0.00 0.00 0.00 0.00 0.00 0.00 0.00 0.00 0.00 0.00 0.00 0.00 0.00 0.00 0.00 0.00 0.00 0.00 0.00 0.00 0.00 0.00 0.00 0.00 0.00 0.00 0.00 0.00 0.00 0.00 0.00 0.00 0.00 0.00 0.00 0.00
0.00 0.00 0.00 0.00 0.00 0.00 0.00 0.00 0.00 0.00 0.00 0.00 0.00 0.00 0.00 0.00 0.00 0.00 0.00 0.00 0.00 0.00 0.00 0.00 0.00 0.00 0.00 0.00 0.00 0.00 0.00 0.00 0.00 0.00 0.00 0.00 0.00 0.00 0.00 0.00 0.00 0.00 0.00 0.00 0.00 0.00 0.00 0.00 0.00 0.00 0.00 0.00 0.00 0.00 0.00 0.00 0.00 0.00 0.00 0.00 0.00 0.00 0.00 0.00 0.00 0.00 0.00 0.00 0.00
0.00 0.00 0.00 0.00 0.00 0.00 0.00 0.00 0.00 0.00 0.00 0.00 0.00 0.00 0.00 0.00 0.00 0.00 0.00 0.00 0.00 0.00 0.00 0.00 0.00 0.00 0.00 0.00 0.00 0.00 0.00 0.00 0.00 0.00 0.00 0.00 0.00 0.00 0.00 0.00 0.00 0.00 0.00 0.00 0.00 0.00 0.00 0.00 0.00 0.00 0.00 0.00 0.00 0.00 0.00 0.00 0.00 0.00 0.00 0.00 0.00 0.00 0.00 0.00 0.00 0.00 0.00 0.00 0.00
0.00 0.00 0.00 0.00 0.00 0.00 0.00 0.00 0.00 0.00 0.00 0.00 0.00 0.00 0.00 0.00 0.00 0.00 0.00 0.00 0.00 0.00 0.00 0.00 0.00 0.00 0.00 0.00 0.00 0.00 0.00 0.00 0.00 0.00 0.00 0.00 0.00 0.00 0.00 0.00 0.00 0.00 0.00 0.00 0.00 0.00 0.00 0.00 0.00 0.00 0.00 0.00 0.00 0.00 0.00 0.00 0.00 0.00 0.00 0.00 0.00 0.00 0.00 0.00 0.00 0.00 0.00 0.00 0.00
0.00 0.00 0.00 0.00 0.00 0.00 0.00 0.00 0.00 0.00 0.00 0.00 0.00 0.00 0.00 0.00 0.00 0.00 0.00 0.00 0.00 0.00 0.00 0.00 0.00 0.00 0.00 0.00 0.00 0.00 0.00 0.00 0.00 0.00 0.00 0.00 0.00 0.00 0.00 0.00 0.00 0.00 0.00 0.00 0.00 0.00 0.00 0.00 0.00 0.00 0.00 0.00 0.00 0.00 0.00 0.00 0.00 0.00 0.00 0.00 0.00 0.00 0.00 0.00 0.00 0.00 0.00 0.00 0.00
MSLP
1014.32 1014.44 1014.52 1014.60 1014.68 1014.76 1014.84 1014.96 1015.04 1015.08 1015.08 1015.12 1015.12 1015.12 1015.20 1015.24 1015.24 1015.28 1015.40 1015.48 1015.52 1015.56 1015.56 1015.56 1015.60 1015.64 1015.64 1015.68 1015.68 1015.72 1015.68 1015.64 1015.56 1015.56 1015.52 1015.44 1015.40 1015.40 1015.36 1015.32 1015.28 1015.24 1015.16 1015.08 1015.00 1014.92 1014.84 1014.80 1014.72 1014.56 1014.44 1014.32 1014.16 1013.96 1013.80 1013.68 1013.56 1013.44 1013.32 1013.20 1013.08 1012.96 1012.80 1012.68 1012.52 1012.32 1012.16 1012.00 1011.84
1014.48 1014.56 1014.68 1014.72 1014.76 1014.84 1014.92 1015.00 1015.04 1015.12 1015.16 1015.20 1015.28 1015.28 1015.32 1015.36 1015.40 1015.44 1015.52 1015.56 1015.64 1015.68 1015.68 1015.64 1015.68 1015.72 1015.72 1015.72 1015.72 1015.72 1015.72 1015.68 1015.60 1015.56 1015.56 1015.48 1015.44 1015.44 1015.40 1015.36 1015.28 1015.24 1015.16 1015.12 1015.00 1014.96 1014.88 1014.84 1014.72 1014.60 1014.44 1014.28 1014.12 1013.92 1013.76 1013.68 1013.56 1013.44 1013.28 1013.16 1013.08 1012.96 1012.84 1012.68 1012.48 1012.28 1012.16 1011.96 1011.80
1014.64 1014.68 1014.72 1014.72 1014.80 1014.84 1014.88 1015.00 1015.04 1015.12 1015.24 1015.28 1015.36 1015.44 1015.48 1015.52 1015.56 1015.56 1015.64 1015.68 1015.72 1015.72 1015.72 1015.72 1015.76 1015.80 1015.76 1015.80 1015.80 1015.80 1015.76 1015.72 1015.68 1015.64 1015.56 1015.56 1015.44 1015.44 1015.40 1015.36 1015.28 1015.24 1015.16 1015.12 1015.04 1015.00 1014.92 1014.84 1014.72 1014.60 1014.44 1014.28 1014.08 1013.92 1013.76 1013.64 1013.56 1013.44 1013.28 1013.20 1013.12 1013.00 1012.84 1012.68 1012.44 1012.28 1012.12 1011.96 1011.80
1014.84 1014.84 1014.84 1014.84 1014.92 1014.96 1015.00 1015.04 1015.12 1015.20 1015.32 1015.44 1015.44 1015.52 1015.56 1015.68 1015.68 1015.72 1015.72 1015.76 1015.76 1015.76 1015.80 1015.84 1015.84 1015.88 1015.84 1015.84 1015.84 1015.80 1015.80 1015.76 1015.72 1015.68 1015.60 1015.56 1015.48 1015.44 1015.40 1015.36 1015.28 1015.24 1015.16 1015.12 1015.08 1015.00 1014.92 1014.84 1014.72 1014.56 1014.44 1014.28 1014.12 1013.92 1013.76 1013.68 1013.56 1013.44 1013.32 1013.24 1013.12 1013.00 1012.84 1012.64 1012.44 1012.28 1012.12 1011.96 1011.80
1015.04 1015.12 1015.12 1015.12 1015.12 1015.16 1015.20 1015.28 1015.28 1015.36 1015.44 1015.52 1015.52 1015.56 1015.68 1015.72 1015.76 1015.76 1015.80 1015.80 1015.80 1015.84 1015.88 1015.96 1015.96 1015.92 1015.92 1015.88 1015.84 1015.84 1015.80 1015.80 1015.76 1015.72 1015.64 1015.56 1015.52 1015.44 1015.40 1015.36 1015.28 1015.24 1015.16 1015.12 1015.08 1015.00 1014.92 1014.84 1014.72 1014.56 1014.40 1014.24 1014.08 1013.92 1013.76 1013.68 1013.56 1013.44 1013.36 1013.24 1013.12 1013.00 1012.84 1012.64 1012.44 1012.28 1012.08 1011.92 1011.76
1015.24 1015.32 1015.36 1015.40 1015.36 1015.36 1015.40 1015.44 1015.48 1015.52 1015.56 1015.64 1015.64 1015.68 1015.72 1015.80 1015.84 1015.80 1015.80 1015.80 1015.84 1015.88 1015.96 1016.00 1016.00 1016.00 1015.92 1015.92 1015.88 1015.84 1015.84 1015.84 1015.80 1015.72 1015.68 1015.60 1015.56 1015.44 1015.40 1015.36 1015.32 1015.28 1015.20 1015.12 1015.04 1014.96 1014.88 1014.80 1014.64 1014.52 1014.36 1014.20 1014.04 1013.92 1013.76 1013.68 1013.56 1013.44 1013.36 1013.24 1013.12 1012.96 1012.80 1012.60 1012.44 1012.28 1012.08 1011.92 1011.76
1015.40 1015.48 1015.56 1015.56 1015.56 1015.56 1015.56 1015.60 1015.60 1015.64 1015.68 1015.72 1015.80 1015.84 1015.88 1015.92 1015.96 1015.88 1015.84 1015.84 1015.88 1015.96 1016.04 1016.08 1016.08 1016.04 1016.04 1016.00 1015.96 1015.92 1015.92 1015.88 1015.84 1015.80 1015.72 1015.64 1015.56 1015.48 1015.44 1015.36 1015.32 1015.28 1015.16 1015.12 1015.04 1014.96 1014.84 1014.76 1014.64 1014.48 1014.32 1014.16 1014.00 1013.84 1013.76 1013.72 1013.60 1013.48 1013.36 1013.20 1013.04 1012.92 1012.76 1012.56 1012.40 1012.24 1012.08 1011.84 1011.68
1015.60 1015.64 1015.72 1015.72 1015.72 1015.72 1015.72 1015.72 1015.72 1015.72 1015.76 1015.84 1015.96 1016.00 1016.00 1016.04 1016.04 1016.00 1015.96 1015.92 1015.96 1016.04 1016.12 1016.16 1016.16 1016.12 1016.12 1016.08 1016.00 1016.00 1015.96 1015.92 1015.84 1015.84 1015.76 1015.68 1015.60 1015.52 1015.44 1015.40 1015.32 1015.24 1015.16 1015.12 1015.04 1014.96 1014.84 1014.76 1014.64 1014.48 1014.28 1014.16 1014.00 1013.88 1013.80 1013.72 1013.64 1013.48 1013.32 1013.16 1012.96 1012.84 1012.72 1012.56 1012.36 1012.16 1012.00 1011.76 1011.56
1015.72 1015.80 1015.84 1015.84 1015.88 1015.88 1015.88 1015.84 1015.84 1015.84 1015.88 1015.96 1016.00 1016.08 1016.12 1016.16 1016.16 1016.12 1016.04 1016.04 1016.12 1016.16 1016.16 1016.16 1016.16 1016.16 1016.16 1016.12 1016.04 1016.00 1016.00 1016.00 1015.96 1015.84 1015.76 1015.72 1015.64 1015.56 1015.44 1015.40 1015.32 1015.24 1015.12 1015.12 1015.00 1014.92 1014.84 1014.76 1014.60 1014.44 1014.28 1014.16 1014.00 1013.88 1013.80 1013.72 1013.56 1013.40 1013.28 1013.08 1012.88 1012.72 1012.56 1012.44 1012.28 1012.08 1011.84 1011.64 1011.44
1015.84 1015.88 1015.92 1015.96 1016.00 1016.00 1016.00 1015.96 1016.00 1016.00 1016.00 1016.04 1016.12 1016.16 1016.16 1016.20 1016.20 1016.20 1016.20 1016.20 1016.20 1016.16 1016.12 1016.16 1016.20 1016.20 1016.16 1016.16 1016.16 1016.12 1016.08 1016.04 1016.00 1015.88 1015.80 1015.72 1015.64 1015.56 1015.44 1015.40 1015.28 1015.24 1015.12 1015.08 1015.00 1014.92 1014.84 1014.72 1014.56 1014.44 1014.32 1014.20 1014.04 1013.88 1013.76 1013.64 1013.48 1013.32 1013.16 1013.00 1012.80 1012.64 1012.44 1012.32 1012.16 1011.96 1011.72 1011.52 1011.28
1015.96 1016.00 1016.04 1016.04 1016.04 1016.08 1016.04 1016.00 1016.04 1016.08 1016.16 1016.16 1016.20 1016.20 1016.20 1016.24 1016.24 1016.28 1016.28 1016.28 1016.24 1016.16 1016.16 1016.20 1016.24 1016.24 1016.20 1016.20 1016.16 1016.16 1016.12 1016.08 1016.00 1015.92 1015.84 1015.72 1015.60 1015.52 1015.44 1015.40 1015.28 1015.20 1015.12 1015.04 1015.00 1014.92 1014.84 1014.72 1014.56 1014.40 1014.28 1014.16 1014.00 1013.84 1013.72 1013.56 1013.44 1013.24 1013.08 1012.92 1012.72 1012.52 1012.28 1012.12 1012.00 1011.80 1011.56 1011.36 1011.12
1016.12 1016.16 1016.20 1016.16 1016.20 1016.16 1016.12 1016.12 1016.16 1016.16 1016.20 1016.24 1016.28 1016.28 1016.28 1016.28 1016.28 1016.32 1016.36 1016.32 1016.24 1016.20 1016.28 1016.28 1016.28 1016.28 1016.28 1016.24 1016.20 1016.16 1016.16 1016.08 1016.00 1015.92 1015.84 1015.72 1015.60 1015.52 1015.44 1015.32 1015.24 1015.16 1015.12 1015.00 1015.00 1014.92 1014.80 1014.68 1014.52 1014.36 1014.16 1014.04 1013.92 1013.80 1013.60 1013.44 1013.32 1013.12 1012.96 1012.76 1012.60 1012.40 1012.16 1011.92 1011.76 1011.60 1011.44 1011.20 1011.00
1016.20 1016.24 1016.24 1016.24 1016.24 1016.24 1016.16 1016.20 1016.24 1016.28 1016.28 1016.28 1016.36 1016.40 1016.40 1016.36 1016.36 1016.40 1016.40 1016.32 1016.32 1016.32 1016.36 1016.36 1016.32 1016.32 1016.28 1016.28 1016.24 1016.24 1016.16 1016.12 1016.00 1015.92 1015.84 1015.72 1015.56 1015.48 1015.36 1015.28 1015.20 1015.12 1015.08 1015.00 1014.96 1014.88 1014.76 1014.60 1014.48 1014.28 1014.12 1013.96 1013.84 1013.72 1013.56 1013.44 1013.24 1013.04 1012.84 1012.60 1012.44 1012.24 1012.00 1011.80 1011.56 1011.44 1011.24 1011.04 1010.88
1016.28 1016.28 1016.32 1016.28 1016.28 1016.28 1016.28 1016.28 1016.32 1016.36 1016.36 1016.40 1016.44 1016.48 1016.48 1016.44 1016.44 1016.44 1016.48 1016.44 1016.44 1016.44 1016.40 1016.36 1016.36 1016.32 1016.32 1016.28 1016.28 1016.20 1016.16 1016.08 1016.00 1015.88 1015.80 1015.68 1015.56 1015.44 1015.36 1015.28 1015.16 1015.12 1015.04 1015.00 1014.92 1014.84 1014.72 1014.56 1014.40 1014.24 1014.04 1013.84 1013.72 1013.60 1013.48 1013.36 1013.16 1013.00 1012.72 1012.52 1012.28 1012.00 1011.84 1011.64 1011.44 1011.28 1011.08 1010.88 1010.72
1016.28 1016.32 1016.40 1016.40 1016.40 1016.40 1016.40 1016.44 1016.44 1016.44 1016.44 1016.48 1016.56 1016.60 1016.60 1016.56 1016.52 1016.56 1016.56 1016.56 1016.56 1016.52 1016.44 1016.40 1016.40 1016.36 1016.36 1016.32 1016.28 1016.20 1016.16 1016.04 1015.96 1015.84 1015.76 1015.64 1015.56 1015.44 1015.32 1015.28 1015.16 1015.12 1015.00 1014.92 1014.84 1014.72 1014.64 1014.48 1014.32 1014.16 1014.00 1013.84 1013.68 1013.52 1013.40 1013.28 1013.08 1012.88 1012.64 1012.44 1012.16 1011.92 1011.68 1011.48 1011.28 1011.12 1010.96 1010.72 1010.52
1016.32 1016.40 1016.44 1016.48 1016.48 1016.52 1016.56 1016.56 1016.56 1016.56 1016.56 1016.60 1016.68 1016.72 1016.68 1016.64 1016.60 1016.64 1016.68 1016.64 1016.60 1016.56 1016.52 1016.48 1016.44 1016.44 1016.40 1016.32 1016.28 1016.20 1016.16 1016.04 1015.96 1015.84 1015.72 1015.60 1015.52 1015.44 1015.32 1015.28 1015.16 1015.08 1015.00 1014.88 1014.76 1014.68 1014.56 1014.44 1014.28 1014.08 1013.92 1013.76 1013.60 1013.44 1013.28 1013.12 1012.96 1012.72 1012.52 1012.28 1012.08 1011.84 1011.60 1011.40 1011.20 1011.00 1010.80 1010.60 1010.44
1016.40 1016.48 1016.56 1016.56 1016.60 1016.64 1016.72 1016.72 1016.72 1016.72 1016.76 1016.76 1016.80 1016.80 1016.76 1016.76 1016.72 1016.72 1016.72 1016.72 1016.64 1016.60 1016.56 1016.56 1016.52 1016.44 1016.44 1016.36 1016.28 1016.20 1016.16 1016.04 1015.96 1015.84 1015.72 1015.60 1015.52 1015.44 1015.32 1015.24 1015.12 1015.04 1014.96 1014.84 1014.72 1014.56 1014.44 1014.28 1014.16 1014.00 1013.84 1013.72 1013.56 1013.36 1013.20 1013.04 1012.84 1012.60 1012.40 1012.16 1011.92 1011.72 1011.52 1011.28 1011.12 1010.92 1010.72 1010.52 1010.28
1016.48 1016.56 1016.64 1016.68 1016.72 1016.80 1016.84 1016.88 1016.88 1016.88 1016.92 1016.92 1016.88 1016.92 1016.88 1016.88 1016.84 1016.80 1016.80 1016.72 1016.72 1016.64 1016.60 1016.56 1016.56 1016.52 1016.44 1016.36 1016.28 1016.20 1016.16 1016.04 1015.92 1015.84 1015.72 1015.64 1015.56 1015.44 1015.32 1015.20 1015.12 1015.00 1014.92 1014.76 1014.60 1014.48 1014.32 1014.16 1014.04 1013.92 1013.76 1013.60 1013.48 1013.32 1013.16 1013.00 1012.72 1012.52 1012.28 1012.04 1011.84 1011.64 1011.44 1011.24 1011.04 1010.84 1010.64 1010.44 1010.20
1016.56 1016.68 1016.72 1016.80 1016.88 1016.96 1016.96 1017.00 1017.00 1017.00 1016.96 1016.96 1017.00 1017.00 1016.96 1016.96 1016.88 1016.84 1016.80 1016.76 1016.72 1016.72 1016.68 1016.60 1016.56 1016.48 1016.44 1016.36 1016.28 1016.20 1016.12 1016.04 1015.92 1015.80 1015.72 1015.60 1015.52 1015.44 1015.28 1015.16 1015.08 1014.96 1014.84 1014.72 1014.56 1014.44 1014.24 1014.08 1013.92 1013.80 1013.68 1013.52 1013.44 1013.28 1013.08 1012.88 1012.64 1012.44 1012.20 1011.96 1011.72 1011.52 1011.32 1011.12 1010.96 1010.80 1010.60 1010.40 1010.16
1016.72 1016.80 1016.88 1016.96 1017.00 1017.04 1017.04 1017.08 1017.04 1017.00 1017.00 1017.00 1017.00 1017.00 1017.00 1016.96 1016.88 1016.84 1016.80 1016.76 1016.76 1016.72 1016.72 1016.64 1016.56 1016.44 1016.40 1016.32 1016.28 1016.16 1016.08 1016.00 1015.92 1015.80 1015.68 1015.56 1015.48 1015.36 1015.24 1015.12 1015.00 1014.88 1014.76 1014.60 1014.48 1014.32 1014.16 1014.00 1013.84 1013.72 1013.64 1013.52 1013.40 1013.20 1013.00 1012.76 1012.56 1012.28 1012.08 1011.88 1011.64 1011.40 1011.24 1011.08 1010.88 1010.68 1010.48 1010.28 1010.08
1016.84 1016.92 1017.00 1017.12 1017.12 1017.12 1017.12 1017.12 1017.08 1017.04 1017.00 1017.00 1017.00 1017.00 1017.00 1016.96 1016.88 1016.84 1016.80 1016.76 1016.76 1016.72 1016.68 1016.60 1016.56 1016.44 1016.36 1016.32 1016.24 1016.16 1016.04 1016.00 1015.88 1015.76 1015.64 1015.48 1015.44 1015.28 1015.16 1015.08 1014.92 1014.76 1014.64 1014.52 1014.36 1014.20 1014.04 1013.92 1013.80 1013.72 1013.60 1013.48 1013.32 1013.12 1012.92 1012.68 1012.44 1012.20 1012.00 1011.76 1011.56 1011.32 1011.16 1011.00 1010.80 1010.56 1010.40 1010.20 1010.00
1016.96 1017.08 1017.12 1017.16 1017.20 1017.24 1017.20 1017.16 1017.12 1017.08 1017.00 1017.00 1017.00 1017.00 1016.96 1016.92 1016.88 1016.84 1016.80 1016.80 1016.76 1016.72 1016.64 1016.56 1016.52 1016.44 1016.36 1016.28 1016.20 1016.12 1016.00 1015.96 1015.84 1015.72 1015.56 1015.44 1015.32 1015.20 1015.08 1015.00 1014.80 1014.68 1014.52 1014.40 1014.24 1014.12 1014.00 1013.88 1013.80 1013.72 1013.60 1013.44 1013.28 1013.04 1012.84 1012.60 1012.36 1012.12 1011.84 1011.68 1011.44 1011.24 1011.04 1010.84 1010.68 1010.48 1010.28 1010.04 1009.84
1017.08 1017.16 1017.20 1017.24 1017.24 1017.24 1017.20 1017.16 1017.12 1017.08 1017.04 1017.04 1017.00 1017.00 1016.96 1016.92 1016.88 1016.84 1016.84 1016.80 1016.72 1016.68 1016.64 1016.56 1016.52 1016.44 1016.36 1016.28 1016.16 1016.08 1015.96 1015.84 1015.72 1015.56 1015.48 1015.36 1015.24 1015.12 1015.00 1014.88 1014.76 1014.60 1014.44 1014.32 1014.16 1014.08 1013.96 1013.84 1013.76 1013.72 1013.56 1013.40 1013.16 1012.96 1012.72 1012.56 1012.32 1012.04 1011.80 1011.56 1011.32 1011.12 1010.96 1010.76 1010.56 1010.32 1010.12 1009.88 1009.72
1017.12 1017.20 1017.24 1017.24 1017.20 1017.16 1017.12 1017.12 1017.08 1017.04 1017.04 1017.00 1017.00 1017.00 1016.96 1016.92 1016.88 1016.84 1016.84 1016.76 1016.72 1016.64 1016.60 1016.56 1016.48 1016.44 1016.32 1016.24 1016.16 1016.00 1015.88 1015.72 1015.60 1015.44 1015.32 1015.24 1015.12 1015.04 1014.92 1014.84 1014.68 1014.52 1014.40 1014.28 1014.16 1014.08 1014.00 1013.88 1013.72 1013.56 1013.44 1013.28 1013.08 1012.88 1012.72 1012.44 1012.28 1012.04 1011.76 1011.52 1011.28 1011.00 1010.80 1010.60 1010.44 1010.20 1010.00 1009.72 1009.48
1017.16 1017.20 1017.20 1017.16 1017.12 1017.12 1017.08 1017.08 1017.04 1017.04 1017.04 1017.04 1017.00 1017.00 1016.92 1016.92 1016.84 1016.84 1016.76 1016.72 1016.68 1016.60 1016.56 1016.48 1016.44 1016.36 1016.28 1016.16 1016.04 1015.92 1015.80 1015.68 1015.56 1015.40 1015.28 1015.12 1015.04 1014.96 1014.84 1014.72 1014.56 1014.44 1014.32 1014.20 1014.08 1013.96 1013.88 1013.84 1013.72 1013.56 1013.40 1013.20 1013.00 1012.84 1012.60 1012.44 1012.24 1012.00 1011.72 1011.48 1011.24 1010.96 1010.68 1010.44 1010.24 1010.04 1009.84 1009.60 1009.36
1017.20 1017.20 1017.16 1017.12 1017.12 1017.08 1017.04 1017.04 1017.04 1017.04 1017.04 1017.00 1017.00 1016.96 1016.96 1016.92 1016.84 1016.84 1016.76 1016.72 1016.64 1016.56 1016.52 1016.44 1016.36 1016.28 1016.16 1016.08 1015.96 1015.84 1015.72 1015.60 1015.48 1015.32 1015.20 1015.08 1014.96 1014.84 1014.76 1014.64 1014.52 1014.36 1014.24 1014.08 1013.96 1013.84 1013.76 1013.72 1013.60 1013.52 1013.36 1013.20 1013.00 1012.76 1012.56 1012.32 1012.16 1011.92 1011.72 1011.44 1011.20 1010.92 1010.60 1010.28 1010.00 1009.80 1009.64 1009.44 1009.28
1017.16 1017.16 1017.16 1017.12 1017.08 1017.04 1017.00 1017.04 1017.04 1017.00 1017.00 1017.00 1016.96 1016.92 1016.92 1016.92 1016.84 1016.80 1016.72 1016.68 1016.60 1016.56 1016.48 1016.44 1016.32 1016.20 1016.12 1016.00 1015.84 1015.72 1015.64 1015.52 1015.44 1015.28 1015.12 1015.00 1014.88 1014.76 1014.64 1014.52 1014.40 1014.24 1014.12 1013.96 1013.84 1013.76 1013.68 1013.56 1013.44 1013.40 1013.32 1013.16 1013.00 1012.76 1012.52 1012.28 1012.00 1011.84 1011.64 1011.36 1011.12 1010.84 1010.52 1010.24 1009.92 1009.68 1009.44 1009.28 1009.20
1017.12 1017.12 1017.12 1017.08 1017.04 1017.00 1017.00 1017.00 1017.00 1017.00 1017.00 1016.96 1016.92 1016.92 1016.88 1016.84 1016.84 1016.76 1016.72 1016.64 1016.56 1016.48 1016.44 1016.36 1016.28 1016.16 1016.08 1015.96 1015.80 1015.68 1015.56 1015.44 1015.32 1015.24 1015.08 1014.96 1014.80 1014.68 1014.52 1014.40 1014.28 1014.16 1014.00 1013.84 1013.72 1013.64 1013.56 1013.44 1013.36 1013.28 1013.20 1013.12 1012.96 1012.76 1012.52 1012.28 1012.00 1011.76 1011.52 1011.28 1011.00 1010.72 1010.44 1010.16 1009.84 1009.64 1009.44 1009.28 1009.12
1017.12 1017.12 1017.12 1017.08 1017.04 1017.00 1017.00 1017.00 1017.00 1017.00 1017.00 1016.96 1016.92 1016.88 1016.84 1016.84 1016.76 1016.72 1016.68 1016.60 1016.52 1016.48 1016.44 1016.32 1016.28 1016.16 1016.00 1015.88 1015.72 1015.60 1015.44 1015.32 1015.20 1015.08 1014.96 1014.84 1014.68 1014.56 1014.44 1014.28 1014.16 1014.00 1013.88 1013.80 1013.64 1013.52 1013.44 1013.32 1013.24 1013.12 1013.08 1013.00 1012.88 1012.72 1012.48 1012.24 1012.00 1011.72 1011.44 1011.20 1010.92 1010.64 1010.40 1010.12 1009.88 1009.68 1009.48 1009.32 1009.12
1017.12 1017.08 1017.08 1017.04 1017.00 1017.00 1017.00 1017.00 1017.00 1017.00 1016.92 1016.92 1016.88 1016.84 1016.84 1016.80 1016.72 1016.72 1016.64 1016.60 1016.56 1016.48 1016.44 1016.32 1016.24 1016.12 1015.96 1015.84 1015.64 1015.52 1015.36 1015.24 1015.12 1015.00 1014.84 1014.72 1014.56 1014.44 1014.32 1014.20 1014.04 1013.92 1013.76 1013.68 1013.52 1013.40 1013.28 1013.24 1013.12 1013.08 1013.00 1012.92 1012.84 1012.68 1012.44 1012.24 1012.00 1011.72 1011.44 1011.12 1010.84 1010.60 1010.36 1010.16 1009.88 1009.72 1009.52 1009.32 1009.12
1017.12 1017.08 1017.08 1017.04 1017.00 1017.00 1017.00 1017.00 1017.00 1016.96 1016.96 1016.92 1016.84 1016.84 1016.84 1016.80 1016.72 1016.72 1016.64 1016.60 1016.56 1016.44 1016.40 1016.28 1016.16 1016.00 1015.84 1015.72 1015.56 1015.44 1015.28 1015.12 1015.00 1014.88 1014.76 1014.64 1014.48 1014.32 1014.20 1014.12 1013.96 1013.80 1013.64 1013.52 1013.44 1013.28 1013.20 1013.12 1013.04 1013.00 1012.92 1012.84 1012.72 1012.60 1012.40 1012.16 1011.88 1011.64 1011.36 1011.08 1010.80 1010.56 1010.32 1010.12 1009.88 1009.72 1009.52 1009.32 1009.12
1017.12 1017.08 1017.08 1017.04 1017.00 1017.00 1017.00 1017.00 1017.00 1016.96 1016.88 1016.88 1016.84 1016.84 1016.84 1016.80 1016.76 1016.72 1016.64 1016.60 1016.52 1016.40 1016.28 1016.16 1016.04 1015.88 1015.76 1015.56 1015.44 1015.28 1015.16 1015.04 1014.92 1014.80 1014.68 1014.56 1014.40 1014.24 1014.08 1013.96 1013.84 1013.68 1013.52 1013.40 1013.28 1013.20 1013.12 1013.04 1012.96 1012.88 1012.80 1012.72 1012.64 1012.48 1012.28 1012.08 1011.84 1011.56 1011.28 1011.00 1010.72 1010.52 1010.28 1010.08 1009.84 1009.68 1009.52 1009.32 1009.12
1017.08 1017.08 1017.08 1017.04 1017.04 1017.04 1017.04 1017.00 1017.00 1016.96 1016.88 1016.88 1016.84 1016.84 1016.84 1016.80 1016.72 1016.72 1016.64 1016.56 1016.44 1016.32 1016.20 1016.08 1015.96 1015.80 1015.64 1015.48 1015.32 1015.20 1015.08 1014.96 1014.84 1014.72 1014.56 1014.44 1014.32 1014.16 1014.00 1013.84 1013.68 1013.56 1013.44 1013.28 1013.20 1013.12 1013.04 1012.96 1012.88 1012.80 1012.72 1012.60 1012.52 1012.36 1012.16 1012.00 1011.72 1011.44 1011.12 1010.84 1010.64 1010.44 1010.28 1010.08 1009.84 1009.64 1009.44 1009.24 1009.04
1017.12 1017.08 1017.04 1017.04 1017.04 1017.04 1017.00 1017.00 1016.96 1016.92 1016.92 1016.88 1016.84 1016.84 1016.84 1016.80 1016.72 1016.64 1016.56 1016.48 1016.40 1016.28 1016.16 1016.00 1015.88 1015.76 1015.60 1015.44 1015.28 1015.12 1015.00 1014.84 1014.72 1014.60 1014.48 1014.32 1014.20 1014.04 1013.88 1013.72 1013.56 1013.44 1013.32 1013.24 1013.12 1013.04 1012.96 1012.84 1012.80 1012.72 1012.64 1012.48 1012.36 1012.24 1012.04 1011.84 1011.56 1011.28 1011.00 1010.76 1010.56 1010.36 1010.16 1010.00 1009.80 1009.60 1009.40 1009.12 1008.88
1017.12 1017.08 1017.04 1017.04 1017.04 1017.04 1017.00 1017.00 1016.96 1016.92 1016.92 1016.88 1016.84 1016.84 1016.80 1016.80 1016.72 1016.60 1016.48 1016.40 1016.28 1016.20 1016.08 1015.96 1015.80 1015.68 1015.52 1015.40 1015.28 1015.12 1014.96 1014.76 1014.64 1014.52 1014.44 1014.28 1014.12 1013.92 1013.72 1013.60 1013.44 1013.36 1013.28 1013.16 1013.04 1013.00 1012.88 1012.80 1012.72 1012.64 1012.52 1012.40 1012.28 1012.08 1011.84 1011.60 1011.36 1011.12 1010.88 1010.68 1010.48 1010.28 1010.12 1009.92 1009.72 1009.48 1009.28 1009.00 1008.76
1017.12 1017.08 1017.04 1017.04 1017.04 1017.04 1017.00 1017.00 1016.96 1016.92 1016.92 1016.88 1016.84 1016.80 1016.76 1016.72 1016.68 1016.56 1016.48 1016.36 1016.24 1016.12 1015.96 1015.84 1015.68 1015.56 1015.40 1015.28 1015.12 1015.04 1014.92 1014.72 1014.56 1014.40 1014.28 1014.16 1014.00 1013.80 1013.60 1013.44 1013.32 1013.24 1013.16 1013.08 1013.00 1012.92 1012.84 1012.72 1012.64 1012.52 1012.40 1012.28 1012.16 1011.96 1011.72 1011.48 1011.28 1011.00 1010.80 1010.60 1010.40 1010.20 1010.00 1009.76 1009.56 1009.28 1009.08 1008.84 1008.64
1017.12 1017.08 1017.08 1017.08 1017.04 1017.04 1017.04 1017.00 1017.00 1016.96 1016.92 1016.88 1016.84 1016.84 1016.76 1016.72 1016.60 1016.52 1016.44 1016.28 1016.16 1016.00 1015.84 1015.72 1015.60 1015.44 1015.32 1015.20 1015.08 1014.96 1014.84 1014.68 1014.52 1014.32 1014.16 1014.00 1013.88 1013.72 1013.48 1013.32 1013.24 1013.16 1013.08 1013.00 1012.92 1012.84 1012.72 1012.64 1012.48 1012.40 1012.28 1012.12 1011.96 1011.76 1011.56 1011.40 1011.16 1010.96 1010.72 1010.48 1010.28 1010.04 1009.84 1009.60 1009.36 1009.08 1008.84 1008.68 1008.48
1017.12 1017.12 1017.12 1017.12 1017.08 1017.04 1017.04 1017.00 1017.00 1017.00 1016.92 1016.88 1016.84 1016.84 1016.76 1016.68 1016.56 1016.44 1016.32 1016.24 1016.08 1015.92 1015.76 1015.64 1015.52 1015.40 1015.28 1015.12 1015.00 1014.84 1014.72 1014.60 1014.44 1014.28 1014.08 1013.92 1013.80 1013.64 1013.44 1013.24 1013.12 1013.04 1013.00 1012.92 1012.80 1012.72 1012.60 1012.48 1012.36 1012.24 1012.16 1012.00 1011.84 1011.64 1011.48 1011.28 1011.08 1010.84 1010.60 1010.40 1010.12 1009.84 1009.64 1009.44 1009.16 1008.88 1008.68 1008.52 1008.36
1017.12 1017.12 1017.12 1017.12 1017.12 1017.08 1017.08 1017.04 1017.00 1017.00 1016.92 1016.88 1016.84 1016.76 1016.72 1016.60 1016.52 1016.40 1016.28 1016.16 1016.08 1015.92 1015.72 1015.56 1015.44 1015.28 1015.20 1015.08 1014.92 1014.72 1014.56 1014.48 1014.36 1014.20 1014.00 1013.84 1013.68 1013.56 1013.44 1013.20 1013.00 1012.96 1012.88 1012.80 1012.68 1012.56 1012.44 1012.32 1012.24 1012.16 1012.00 1011.88 1011.72 1011.56 1011.40 1011.20 1010.96 1010.72 1010.52 1010.28 1009.96 1009.68 1009.44 1009.24 1009.00 1008.76 1008.52 1008.36 1008.24
1017.12 1017.16 1017.16 1017.12 1017.12 1017.12 1017.08 1017.04 1017.00 1017.00 1016.92 1016.88 1016.84 1016.72 1016.68 1016.56 1016.44 1016.32 1016.20 1016.08 1016.00 1015.84 1015.72 1015.56 1015.40 1015.24 1015.12 1015.00 1014.84 1014.60 1014.44 1014.28 1014.20 1014.08 1013.92 1013.76 1013.56 1013.44 1013.32 1013.16 1012.96 1012.84 1012.76 1012.68 1012.52 1012.40 1012.28 1012.20 1012.12 1012.00 1011.88 1011.76 1011.68 1011.52 1011.32 1011.12 1010.88 1010.60 1010.36 1010.12 1009.84 1009.52 1009.24 1009.00 1008.84 1008.68 1008.44 1008.24 1008.12
1017.12 1017.16 1017.16 1017.16 1017.16 1017.12 1017.12 1017.08 1017.00 1017.00 1016.92 1016.88 1016.80 1016.72 1016.60 1016.48 1016.40 1016.24 1016.12 1016.00 1015.88 1015.76 1015.64 1015.48 1015.32 1015.20 1015.08 1014.92 1014.76 1014.56 1014.36 1014.16 1014.00 1013.92 1013.80 1013.64 1013.48 1013.32 1013.20 1013.04 1012.84 1012.72 1012.60 1012.48 1012.40 1012.24 1012.12 1012.00 1011.96 1011.88 1011.76 1011.68 1011.56 1011.44 1011.28 1011.08 1010.80 1010.52 1010.24 1010.00 1009.72 1009.44 1009.12 1008.84 1008.72 1008.56 1008.40 1008.20 1007.96
Thickness
5608 5606 5604 5603 5601 5599 5597 5595 5594 5592 5591 5590 5589 5588 5587 5586 5584 5583 5581 5579 5577 5575 5573 5571 5570 5568 5566 5564 5562 5560 5558 5556 5555 5553 5551 5550 5548 5546 5544 5542 5540 5538 5536 5535 5533 5532 5530 5528 5526 5524 5522 5521 5520 5519 5517 5516 5514 5512 5509 5507 5505 5504 5501 5500 5497 5496 5494 5491 5489
5604 5603 5601 5599 5598 5596 5595 5593 5592 5590 5589 5587 5586 5585 5583 5582 5581 5579 5577 5575 5573 5571 5569 5567 5566 5564 5562 5560 5558 5556 5554 5553 5551 5549 5547 5546 5544 5542 5540 5538 5536 5534 5532 5531 5528 5527 5525 5523 5521 5520 5518 5516 5515 5514 5512 5510 5508 5507 5505 5502 5500 5498 5496 5494 5492 5490 5488 5486 5484
5601 5599 5598 5597 5596 5594 5592 5591 5590 5588 5586 5585 5583 5582 5580 5578 5577 5575 5574 5572 5569 5567 5566 5564 5562 5560 5558 5556 5554 5552 5550 5548 5547 5545 5543 5542 5539 5538 5536 5534 5532 5530 5528 5526 5524 5522 5520 5519 5516 5515 5513 5512 5511 5509 5508 5505 5503 5501 5499 5497 5494 5492 5490 5488 5487 5485 5483 5480 5478
5598 5596 5595 5593 5592 5591 5590 5588 5587 5585 5584 5582 5580 5578 5576 5575 5573 5571 5570 5568 5566 5564 5562 5560 5557 5555 5554 5552 5550 5548 5546 5544 5543 5541 5539 5538 5535 5533 5531 5529 5527 5525 5523 5521 5519 5517 5515 5514 5511 5510 5508 5507 5506 5504 5502 5500 5498 5496 5494 5491 5489 5487 5484 5482 5481 5479 5477 5474 5472
5594 5592 5591 5589 5588 5587 5586 5584 5583 5582 5580 5578 5577 5575 5574 5571 5570 5568 5566 5565 5562 5560 5558 5555 5553 5552 5550 5548 5546 5545 5542 5540 5538 5537 5535 5533 5531 5529 5527 5525 5523 5521 5519 5517 5515 5512 5510 5509 5507 5506 5504 5502 5501 5499 5497 5495 5492 5490 5488 5485 5483 5481 5479 5477 5475 5473 5471 5468 5466
5590 5588 5587 5585 5584 5583 5582 5581 5580 5578 5577 5575 5574 5572 5570 5568 5566 5565 5563 5561 5559 5556 5554 5552 5550 5548 5546 5544 5542 5540 5539 5536 5534 5533 5531 5529 5527 5525 5523 5521 5518 5516 5514 5512 5510 5508 5506 5504 5502 5501 5499 5498 5495 5494 5491 5490 5487 5485 5482 5480 5478 5475 5474 5471 5469 5466 5465 5463 5460
5587 5585 5583 5582 5581 5579 5578 5577 5576 5575 5573 5572 5570 5568 5566 5564 5562 5561 5559 5557 5555 5552 5550 5547 5546 5544 5542 5540 5538 5536 5534 5532 5530 5528 5526 5524 5522 5520 5518 5516 5514 5512 5509 5508 5505 5503 5501 5499 5497 5496 5494 5492 5491 5488 5486 5484 5481 5479 5477 5475 5472 5470 5468 5465 5463 5461 5459 5457 5455
5582 5581 5580 5578 5576 5576 5574 5574 5573 5571 5570 5568 5566 5564 5562 5560 5558 5556 5555 5554 5551 5548 5546 5544 5541 5539 5537 5536 5534 5532 5530 5527 5526 5524 5522 5520 5518 5516 5514 5512 5509 5507 5505 5503 5501 5498 5496 5494 5492 5490 5489 5487 5486 5483 5481 5479 5476 5473 5472 5470 5468 5465 5462 5460 5457 5455 5453 5451 5449
5579 5578 5576 5575 5573 5572 5571 5570 5569 5568 5566 5565 5562 5560 5558 5556 5554 5552 5551 5549 5546 5544 5542 5540 5538 5535 5533 5531 5530 5527 5525 5523 5521 5519 5517 5515 5513 5511 5509 5507 5505 5502 5500 5498 5496 5493 5491 5489 5487 5485 5484 5482 5480 5478 5475 5473 5471 5469 5466 5464 5462 5460 5457 5454 5451 5450 5448 5445 5443
5577 5575 5573 5572 5570 5569 5568 5567 5565 5564 5563 5560 5559 5557 5554 5552 5550 5548 5546 5544 5542 5540 5539 5536 5534 5531 5529 5527 5525 5523 5520 5518 5516 5514 5512 5510 5508 5506 5504 5502 5500 5498 5495 5493 5491 5489 5486 5484 5482 5481 5479 5476 5475 5473 5470 5468 5466 5464 5462 5459 5457 5455 5453 5449 5447 5445 5442 5440 5438
5573 5571 5570 5568 5567 5566 5565 5564 5562 5561 5558 5557 5554 5553 5550 5548 5546 5544 5541 5540 5538 5537 5534 5532 5529 5527 5525 5523 5520 5518 5516 5513 5511 5510 5507 5506 5504 5502 5499 5497 5495 5493 5490 5488 5485 5484 5481 5479 5478 5476 5474 5472 5470 5468 5465 5463 5461 5459 5457 5454 5452 5450 5448 5445 5442 5439 5437 5435 5433
5569 5568 5566 5565 5564 5563 5562 5561 5559 5557 5555 5553 5551 5548 5546 5545 5542 5540 5537 5536 5534 5532 5529 5527 5525 5522 5520 5518 5516 5513 5511 5509 5507 5505 5503 5501 5499 5497 5495 5493 5490 5488 5486 5483 5481 5478 5476 5474 5473 5472 5470 5468 5465 5463 5461 5459 5456 5454 5452 5449 5447 5445 5443 5441 5438 5434 5431 5429 5427
5566 5565 5563 5562 5561 5559 5558 5557 5555 5553 5551 5549 5547 5544 5542 5540 5538 5536 5533 5532 5530 5527 5525 5522 5520 5518 5515 5513 5511 5509 5507 5504 5502 5500 5498 5496 5494 5492 5490 5488 5486 5483 5481 5478 5476 5474 5472 5470 5469 5467 5465 5463 5460 5458 5456 5453 5451 5449 5447 5444 5442 5440 5438 5436 5433 5429 5426 5424 5421
5563 5562 5560 5558 5557 5556 5555 5553 5551 5549 5547 5545 5543 5540 5538 5536 5534 5531 5529 5527 5525 5522 5521 5518 5516 5514 5511 5508 5506 5504 5502 5500 5498 5495 5493 5492 5489 5488 5486 5483 5481 5478 5476 5473 5471 5469 5467 5465 5463 5462 5461 5459 5456 5453 5451 5448 5446 5444 5441 5439 5438 5435 5433 5430 5427 5424 5422 5419 5416
5560 5559 5557 5555 5554 5553 5551 5549 5547 5545 5543 5541 5538 5536 5534 5532 5530 5527 5524 5522 5520 5518 5516 5514 5511 5509 5507 5504 5502 5499 5498 5495 5494 5491 5489 5487 5485 5483 5480 5479 5476 5473 5471 5469 5466 5464 5462 5461 5459 5457 5455 5453 5451 5449 5446 5443 5441 5439 5436 5434 5432 5430 5427 5425 5422 5419 5416 5413 5410
5557 5555 5553 5552 5550 5548 5547 5545 5543 5541 5539 5536 5533 5531 5529 5527 5525 5522 5520 5518 5515 5513 5511 5509 5507 5505 5502 5499 5497 5495 5493 5490 5489 5487 5484 5482 5480 5478 5475 5474 5471 5469 5467 5464 5462 5460 5458 5456 5454 5452 5450 5448 5446 5443 5441 5438 5436 5434 5432 5429 5427 5424 5422 5420 5416 5413 5410 5407 5404
5554 5552 5550 5548 5546 5544 5542 5540 5538 5536 5534 5531 5528 5526 5524 5522 5520 5518 5516 5514 5511 5509 5507 5505 5502 5500 5497 5495 5493 5490 5488 5486 5484 5481 5480 5478 5475 5473 5471 5469 5466 5464 5462 5460 5458 5456 5454 5451 5449 5447 5445 5443 5441 5438 5436 5433 5432 5429 5427 5424 5421 5419 5416 5414 5410 5407 5404 5402 5398
5550 5548 5546 5544 5542 5540 5537 5535 5533 5531 5529 5527 5524 5522 5519 5517 5515 5513 5511 5509 5507 5505 5502 5500 5497 5495 5493 5490 5488 5485 5483 5481 5479 5476 5475 5473 5470 5468 5466 5464 5462 5459 5458 5455 5453 5451 5450 5447 5445 5443 5440 5438 5436 5433 5431 5428 5427 5424 5422 5419 5416 5414 5411 5407 5404 5401 5398 5395 5393
5546 5544 5542 5539 5537 5535 5533 5530 5529 5526 5524 5522 5520 5517 5516 5513 5511 5509 5507 5505 5503 5500 5498 5495 5493 5490 5488 5485 5483 5481 5478 5476 5474 5472 5470 5468 5466 5464 5462 5459 5457 5455 5453 5451 5449 5447 5445 5443 5441 5438 5436 5433 5430 5428 5425 5424 5422 5420 5417 5414 5412 5409 5406 5402 5399 5395 5392 5389 5386
5542 5539 5537 5535 5532 5530 5528 5526 5524 5522 5521 5518 5516 5514 5512 5509 5507 5505 5503 5501 5498 5495 5493 5491 5488 5486 5483 5481 5479 5476 5474 5472 5470 5467 5465 5463 5461 5459 5457 5455 5453 5451 5448 5446 5444 5442 5440 5437 5436 5433 5430 5428 5426 5423 5421 5418 5417 5414 5411 5409 5406 5403 5400 5396 5393 5390 5387 5383 5380
5538 5536 5533 5530 5528 5526 5524 5522 5520 5518 5516 5514 5512 5510 5508 5505 5503 5501 5498 5496 5494 5491 5488 5486 5484 5481 5479 5477 5474 5472 5470 5467 5465 5463 5461 5459 5457 5455 5453 5451 5449 5447 5444 5442 5439 5437 5435 5433 5430 5428 5425 5422 5420 5418 5416 5414 5412 5409 5406 5403 5401 5398 5395 5391 5388 5384 5381 5378 5375
5533 5531 5528 5526 5524 5522 5520 5518 5516 5514 5512 5511 5508 5506 5503 5502 5499 5497 5494 5492 5489 5487 5484 5482 5480 5477 5475 5472 5470 5468 5465 5463 5461 5459 5457 5455 5453 5450 5448 5446 5445 5442 5440 5437 5435 5433 5430 5428 5425 5422 5419 5417 5415 5413 5410 5408 5406 5404 5401 5398 5396 5392 5389 5385 5382 5379 5376 5373 5370
5530 5527 5525 5523 5521 5519 5516 5515 5513 5511 5509 5506 5504 5502 5499 5497 5495 5492 5490 5487 5485 5482 5480 5477 5475 5473 5470 5467 5465 5463 5461 5459 5457 5455 5453 5451 5449 5446 5444 5442 5440 5438 5436 5433 5430 5428 5425 5422 5419 5416 5414 5412 5410 5408 5406 5403 5400 5398 5395 5393 5390 5388 5384 5381 5377 5374 5372 5369 5365
5525 5524 5521 5519 5517 5516 5514 5511 5510 5507 5505 5503 5500 5498 5495 5494 5491 5488 5486 5483 5481 5478 5475 5474 5471 5468 5466 5464 5461 5459 5458 5456 5454 5452 5450 5447 5445 5443 5441 5438 5435 5433 5431 5428 5425 5422 5418 5416 5413 5411 5408 5407 5404 5403 5400 5397 5394 5392 5389 5386 5385 5381 5379 5375 5372 5370 5367 5365 5362
5522 5520 5518 5516 5514 5513 5510 5508 5506 5504 5501 5499 5497 5494 5492 5489 5486 5484 5481 5479 5476 5474 5472 5469 5466 5464 5462 5460 5458 5456 5454 5452 5450 5448 5446 5444 5441 5439 5436 5434 5432 5429 5426 5423 5420 5417 5414 5410 5407 5405 5403 5400 5398 5397 5394 5391 5388 5385 5383 5380 5378 5376 5373 5371 5368 5365 5362 5360 5358
5519 5517 5515 5514 5511 5510 5508 5505 5503 5500 5497 5495 5493 5490 5488 5485 5482 5480 5477 5475 5473 5470 5468 5465 5463 5460 5458 5456 5454 5452 5449 5447 5446 5444 5442 5440 5438 5435 5432 5429 5427 5424 5421 5419 5416 5413 5409 5406 5402 5399 5396 5394 5392 5390 5388 5385 5382 5379 5376 5374 5372 5369 5367 5366 5364 5361 5358 5355 5353
5516 5514 5512 5510 5508 5506 5504 5501 5499 5497 5494 5491 5489 5486 5484 5481 5478 5476 5474 5471 5468 5466 5463 5461 5459 5456 5454 5452 5450 5449 5446 5444 5442 5440 5438 5436 5434 5431 5428 5425 5423 5420 5418 5414 5411 5408 5405 5401 5398 5394 5390 5387 5385 5383 5381 5379 5376 5373 5370 5368 5366 5364 5362 5360 5359 5357 5355 5351 5347
5513 5511 5509 5507 5505 5503 5501 5498 5495 5493 5490 5487 5485 5482 5479 5477 5475 5472 5469 5467 5464 5462 5459 5457 5455 5453 5451 5449 5447 5445 5443 5440 5438 5437 5434 5432 5429 5427 5424 5422 5419 5416 5413 5410 5407 5403 5400 5397 5393 5389 5385 5381 5378 5376 5374 5372 5370 5368 5365 5363 5360 5358 5356 5354 5352 5351 5349 5346 5343
5510 5508 5506 5504 5501 5499 5497 5494 5491 5488 5486 5484 5481 5478 5476 5473 5470 5468 5465 5463 5461 5458 5455 5453 5451 5448 5447 5445 5443 5441 5439 5437 5435 5433 5430 5428 5425 5423 5420 5418 5414 5411 5408 5405 5401 5398 5395 5392 5388 5384 5380 5376 5373 5370 5368 5366 5364 5362 5360 5358 5354 5353 5351 5348 5347 5344 5342 5340 5338
5507 5504 5503 5500 5498 5495 5493 5490 5487 5484 5483 5479 5477 5474 5472 5469 5466 5464 5461 5459 5456 5453 5452 5449 5447 5445 5443 5442 5440 5438 5436 5433 5431 5429 5426 5424 5421 5418 5416 5413 5410 5407 5403 5400 5397 5394 5390 5387 5383 5379 5375 5371 5367 5364 5362 5360 5357 5355 5354 5351 5349 5347 5345 5343 5341 5338 5336 5334 5332
5503 5501 5499 5496 5494 5492 5489 5486 5483 5481 5478 5475 5473 5470 5467 5465 5462 5459 5457 5455 5452 5450 5447 5445 5443 5442 5439 5438 5436 5435 5432 5430 5427 5424 5422 5420 5417 5414 5412 5408 5405 5402 5399 5396 5392 5389 5385 5382 5377 5374 5370 5366 5362 5359 5356 5354 5352 5350 5347 5345 5344 5341 5339 5337 5335 5333 5331 5329 5326
5500 5497 5495 5493 5490 5488 5485 5482 5479 5477 5474 5472 5469 5466 5464 5461 5458 5455 5453 5451 5448 5446 5444 5442 5440 5438 5437 5435 5433 5431 5428 5426 5424 5421 5417 5414 5413 5410 5407 5404 5401 5398 5394 5391 5387 5384 5380 5376 5372 5368 5364 5361 5357 5354 5351 5349 5346 5344 5342 5340 5338 5336 5334 5332 5330 5328 5326 5323 5321
5496 5494 5491 5489 5486 5483 5480 5478 5476 5473 5470 5467 5465 5462 5460 5457 5454 5452 5449 5447 5445 5443 5441 5439 5438 5435 5434 5431 5430 5427 5424 5422 5419 5417 5414 5410 5408 5406 5403 5400 5397 5393 5390 5386 5382 5379 5375 5371 5366 5363 5359 5356 5352 5349 5346 5343 5341 5339 5337 5336 5334 5332 5329 5327 5325 5323 5321 5319 5317
5492 5490 5488 5485 5482 5479 5477 5474 5471 5469 5466 5464 5461 5458 5456 5453 5451 5448 5446 5443 5442 5440 5437 5436 5433 5432 5429 5427 5425 5423 5421 5418 5415 5412 5410 5407 5404 5402 5399 5396 5392 5389 5385 5381 5377 5373 5369 5365 5361 5357 5353 5350 5347 5344 5341 5339 5337 5335 5333 5331 5329 5327 5324 5323 5321 5319 5318 5316 5314
5489 5486 5483 5481 5478 5475 5473 5470 5467 5464 5462 5460 5457 5454 5452 5449 5447 5445 5443 5440 5439 5436 5434 5432 5430 5428 5425 5423 5421 5419 5417 5414 5411 5408 5405 5403 5401 5398 5395 5391 5387 5384 5380 5375 5371 5367 5363 5359 5355 5351 5348 5344 5341 5339 5337 5335 5333 5331 5329 5327 5324 5323 5321 5319 5317 5316 5313 5312 5311
5485 5483 5480 5477 5474 5472 5469 5466 5464 5461 5458 5456 5454 5451 5448 5446 5443 5441 5439 5437 5435 5433 5431 5429 5426 5425 5422 5419 5417 5414 5412 5409 5407 5404 5401 5398 5396 5394 5391 5387 5383 5379 5375 5370 5366 5361 5357 5354 5349 5345 5342 5339 5336 5334 5332 5330 5328 5327 5325 5324 5321 5319 5318 5316 5315 5313 5311 5309 5307
5481 5478 5476 5473 5470 5468 5465 5463 5460 5458 5455 5452 5450 5447 5445 5442 5440 5438 5435 5434 5432 5430 5428 5426 5424 5421 5418 5416 5414 5410 5407 5405 5402 5400 5397 5394 5391 5389 5386 5383 5378 5374 5369 5365 5360 5356 5351 5347 5344 5340 5337 5334 5331 5329 5327 5325 5324 5322 5321 5319 5318 5317 5315 5314 5313 5311 5309 5307 5305
5477 5474 5472 5469 5466 5463 5461 5459 5456 5454 5451 5449 5446 5444 5442 5439 5437 5435 5433 5430 5429 5427 5425 5422 5420 5418 5415 5412 5409 5407 5403 5400 5398 5395 5393 5389 5386 5383 5380 5377 5373 5368 5363 5359 5355 5350 5346 5342 5339 5335 5332 5329 5327 5325 5323 5321 5319 5318 5317 5316 5315 5313 5312 5311 5310 5309 5307 5304 5301
5473 5470 5467 5465 5462 5459 5457 5455 5452 5450 5448 5445 5443 5440 5438 5436 5433 5431 5429 5427 5425 5423 5421 5419 5416 5413 5410 5408 5406 5403 5400 5397 5393 5390 5387 5384 5381 5377 5374 5371 5367 5362 5358 5354 5350 5346 5341 5337 5334 5330 5327 5324 5322 5320 5318 5317 5316 5314 5313 5312 5312 5311 5310 5308 5307 5306 5304 5301 5298
5469 5466 5463 5461 5458 5456 5454 5451 5449 5447 5444 5441 5439 5437 5435 5432 5430 5428 5425 5423 5420 5418 5417 5414 5412 5409 5406 5404 5401 5399 5397 5393 5389 5385 5382 5379 5375 5371 5368 5365 5361 5357 5352 5348 5345 5342 5337 5333 5328 5325 5322 5320 5317 5315 5313 5312 5312 5311 5309 5309 5308 5309 5307 5305 5303 5302 5300 5298 5296
5465 5463 5460 5457 5455 5452 5450 5448 5445 5443 5440 5438 5435 5433 5431 5429 5427 5424 5422 5420 5417 5415 5412 5411 5408 5405 5402 5399 5397 5395 5392 5389 5385 5381 5377 5374 5370 5366 5362 5359 5356 5352 5347 5343 5340 5337 5333 5329 5325 5321 5318 5315 5313 5310 5308 5307 5307 5306 5306 5305 5304 5304 5303 5302 5300 5298 5296 5295 5293